User: anonymous
Location: Unspecified
(0.0000°N, 0.0000°E)
Time: 20:12:40
(UTC+00:00)
Language:

Tiros 1 despin weight - Orbit

View from above orbital plane
View from above orbital plane
View from above satellite
View from above satellite

Ground track
Ground track

The orbit data is extracted from the following two-line orbital elements,

1 00115U 60002D   14241.83672162  .00000963  00000-0  15053-3 0  4420
2 00115 048.1679 010.6783 0037121 280.3717 213.4758 14.80705018898550
Epoch (UTC): 29 August 2014 20:04:52
Eccentricity: 0.0037121
inclination: 48.1679°
perigee height: 601 km
apogee height: 653 km
right ascension of ascending node: 10.6783°
argument of perigee: 280.3717°
revolutions per day: 14.80705018
mean anomaly at epoch: 213.4758°
orbit number at epoch: 89855

The dashed part of the orbit path shows where the satellite is in the earth's shadow,  

DLR